Location: Columbia
(38.9520°N, 92.3340°W)
Time: 05:31:28
(UTC-06:00)

Iridium 22 - Visible Passes

Search period start: 09 December 2016 00:00
Search period end: 19 December 2016 00:00
Orbit: 776 x 779 km, 86.4° (Epoch: 08 December)

Date Brightness Start Highest point End Pass type
(mag) Time Alt. Az. Time Alt. Az. Time Alt. Az.
09 Dec 6.0 04:43:20 29° NNE 04:45:52 59° E 04:51:00 10° SSE visible
09 Dec 7.0 06:23:55 12° NW 06:25:59 15° WNW 06:28:46 10° WSW visible
09 Dec 6.1 17:36:05 10° SSW 17:41:13 63° W 17:46:25 10° N visible
10 Dec 7.1 04:11:24 30° ENE 04:12:13 31° E 04:16:49 10° SE visible
10 Dec 6.4 05:51:59 26° WNW 05:52:47 27° W 05:57:06 10° SW visible
10 Dec 8.4 18:46:45 10° W 18:48:57 13° WNW 18:51:10 10° NW visible
11 Dec 8.1 03:39:21 17° E 03:39:21 17° E 03:41:49 10° ESE visible
11 Dec 5.7 05:19:55 49° WSW 05:19:55 49° WSW 05:24:27 10° SSW visible
11 Dec 7.9 18:10:59 10° SW 18:15:06 23° WNW 18:19:14 10° NNW visible
12 Dec 6.3 04:47:46 43° S 04:47:46 43° S 04:51:13 10° S visible
12 Dec 6.8 17:36:27 10° SSW 17:41:23 43° W 17:46:21 10° NNW visible
13 Dec 7.5 04:15:32 21° SSE 04:15:32 21° SSE 04:17:24 10° SSE visible
13 Dec 7.6 05:56:06 11° WSW 05:56:06 11° WSW 05:56:16 10° WSW visible
14 Dec 7.7 05:23:47 12° SSW 05:23:47 12° SSW 05:24:07 10° SSW visible
14 Dec 8.3 18:12:12 10° WSW 18:15:24 16° WNW 18:18:36 10° NW visible
15 Dec 7.5 17:37:05 10° SW 17:41:36 30° W 17:46:08 10° NNW visible
17 Dec 8.6 18:14:27 10° W 18:15:44 11° WNW 18:17:02 10° WNW visible
18 Dec 8.1 17:38:01 10° SW 17:41:52 21° WNW 17:45:44 10° NNW visible
